星链-38043(STARLINK-38043)

导读

STARLINK-38043(NORAD编号69712)是SpaceX星链(Starlink)低轨卫星互联网星座的在轨通信卫星,于2025年下半年至2026年初由猎鹰9号火箭发射入轨,归属星链批量部署任务序列,运行在约550公里高度的近地轨道,轨道倾角适配星座全球覆盖需求,轨道周期约95分钟。该卫星为V2系列星链平台,搭载激光星间链路与Ku/Ka波段通信载荷,主要为全球偏远、地面网络覆盖不足区域提供低延迟高速宽带接入服务,参与星链星座组网扩容,支撑SpaceX全球天基互联网服务能力提升。(148字)

基本信息
目录编号:
69712
目录名称:
STARLINK-38043
国际标识:
2026-147J
轨道中心:
EARTH
卫星名称:
星链-38043
卫星全名:
星链-38043(STARLINK-38043)
卫星状态:
在轨 (已飞行68 天)
发射日期:
2026-06-28 UTC
国别 :
美国 (US)
星等 :
--
轨道信息
数据来源 国际轨道数据 AOE轨道数据
星历时间 2026-09-03T16:19:48+0800
20小时前
查看轨道信息
2026-09-03T23:00:00+0800
13小时前
查看轨道信息
半长轴 6843.665km 6843.715km
偏心率 0.0001968 0.0001609
轨道倾角 97.284° 97.286°
近地点辐角 94.715° 98.249°
升交点赤经 282.934° 283.209°
平近点角 265.432° 355.078°
近地点 464.181km 464.476km
远地点 466.875km 466.68km
周期 93.906分钟 93.907分钟
每日圈数 15.334502 15.334336
详细信息
固有亮度:
5
最大亮度:
2.5
卫星平台:
Starlink V1.0
覆盖范围:
全球
运营商:
太空探索技术公司
运营商所在国:
美国
制造商(研发单位):
太空探索技术公司
制造商所在国:
美国
使用方式:
暂无
卫星简介
Starlink 计划是 SpaceX 推出的全球卫星互联网项目,通过发射低轨道卫星,为全球尤其是偏远地区提供高速、低延迟的互联网服务。自 2019 年起,Starlink 已部署数千颗卫星,旨在缩小全球数字鸿沟,推动互联网普及。该项目还为军事、航空等行业提供通信支持,带来广泛经济效益。
2D轨道图
3D轨道图
轨道高度分析图
轨道倾角分析图
轨道综合分析图
查看轨道综合分析图
交会数据列表
事件ID 空间交会对象 最接近时刻(TCA) 交会距离 交会风险概率(CRP) 交会风险指数(CRI) 操作
CDM_260829-140806-534906-971221
2026-08-29T
14:08:43+0000
2.481 km
极远距离
1.758626E-6 低风险 0.4
CDM_260904-113006-151606-971221
2026-09-04T
11:30:08+0000
2.500 km
极远距离
1.574658E-6 低风险 0.39
CDM_260829-132106-534906-971221
2026-08-29T
13:21:44+0000
2.936 km
极远距离
1.357089E-6 低风险 0.38
CDM_260905-102305-326206-971221
2026-09-05T
10:23:03+0000
2.964 km
极远距离
1.3552E-6 低风险 0.38
CDM_260903-195004-860206-971221
2026-09-03T
19:50:47+0000
2.709 km
极远距离
1.264022E-6 低风险 0.37
CDM_260904-174604-865006-971221
2026-09-04T
17:46:32+0000
2.955 km
极远距离
1.10223E-6 低风险 0.36
CDM_260903-151404-736806-971221
2026-09-03T
15:14:23+0000
2.625 km
极远距离
1.029933E-6 低风险 0.35